This demonstration page uses our WeatherBlox Daily Observations layout. Learn more.

Left ArrowRight Arrow

36.17497, -115.13722

Hourly Observations for July 14, 2021

Temp ( °F °C ) Dew Point ( °F °C ) Humidity (%) Winds ( mph kmh ) Pressure ( in mb ) Visibility ( mi km ) Precip ( " mm )
12:53 am 00:53 Clear 84 28.9 63 17.2 49 49 S 9 15 29.90 1012 10 16 0.00 0.00
1:53 am 01:53 Clear 86 30 62 16.7 45 45 SE 6 9 29.90 1012 10 16 0.00 0.00
2:53 am 02:53 Clear 86 30 62 16.7 45 45 SSE 5 7 29.88 1012 10 16 0.00 0.00
3:53 am 03:53 Clear 85 29.4 62 16.7 46 46 E 5 7 29.86 1011 10 16 0.00 0.00
4:53 am 04:53 Clear 83 28.3 63 17.2 51 51 E 5 7 29.85 1011 10 16 0.00 0.00
5:53 am 05:53 Sunny 83 28.3 63 17.2 51 51 E 8 13 29.87 1011 10 16 0.00 0.00
6:53 am 06:53 Sunny 84 28.9 63 17.2 49 49 E 12 19 29.88 1012 10 16 0.00 0.00
7:53 am 07:53 Sunny 86 30 63 17.2 46 46 ESE 12 19 29.89 1012 10 16 0.00 0.00
8:53 am 08:53 Sunny 89 31.7 62 16.7 41 41 E 10 17 29.91 1013 10 16 0.00 0.00
9:53 am 09:53 Sunny 91 32.8 62 16.7 38 38 ESE 8 13 29.90 1013 10 16 0.00 0.00
10:53 am 10:53 Sunny 94 34.4 62 16.7 35 35 ENE 12 19 29.90 1013 10 16 0.00 0.00
11:53 am 11:53 Sunny 96 35.6 62 16.7 32 32 ESE 6 9 29.89 1012 10 16 0.00 0.00
12:53 pm 12:53 Sunny 101 38.3 61 16.1 27 27 E 9 15 29.86 1011 10 16 0.00 0.00
1:53 pm 13:53 Sunny 104 40 59 15 23 23 SE 13 20 29.82 1010 10 16 0.00 0.00
2:53 pm 14:53 Sunny 106 41.1 60 15.6 22 22 SSE 15 24 29.78 1008 10 16 0.00 0.00
3:53 pm 15:53 Sunny 107 41.7 58 14.4 20 20 SSE 18 30 29.75 1007 10 16 0.00 0.00
4:53 pm 16:53 Sunny 100 37.8 58 14.4 25 25 S 23 37 29.75 1008 10 16 0.00 0.00
5:53 pm 17:53 Sunny 100 37.8 58 14.4 25 25 S 20 31 29.73 1007 10 16 0.00 0.00
6:53 pm 18:53 Sunny 102 38.9 54 12.2 20 20 SSW 22 35 29.72 1006 10 16 0.00 0.00
7:53 pm 19:53 Sunny 102 38.9 53 11.7 19 19 SSW 13 20 29.72 1007 10 16 0.00 0.00
8:53 pm 20:53 Clear 99 37.2 53 11.7 21 21 S 12 19 29.76 1008 10 16 0.00 0.00
9:53 pm 21:53 Clear 96 35.6 52 11.1 23 23 ENE 9 15 29.81 1010 10 16 0.00 0.00
10:53 pm 22:53 Clear 89 31.7 59 15 36 36 E 20 31 29.87 1012 10 16 0.00 0.00
11:53 pm 23:53 Clear 86 30 60 15.6 42 42 ENE 26 43 29.91 1013 10 16 0.00 0.00

Powered by AerisWeather